Location: Pian di Sc�
(43.6333°N, 11.5500°E)
Time: 17:53:13
(UTC+00:00)

PSLV R/B - Pass Details

Date: 07 August 2020
Orbit: 594 x 629 km, 97.9° (Epoch: 18 September)

Event Time Altitude Azimuth Distance (km) Brightness Sun altitude
Rises 03:08:13 0° 14° (NNE) 2,930 7.8 -10.5°
Reaches altitude 10° 03:10:26 10° 15° (NNE) 2,018 7.0 -10.2°
Maximum altitude 03:14:50 79° 101° (ESE) 646 3.7 -9.6°
Drops below altitude 10° 03:19:11 10° 190° (S) 1,993 5.8 -8.9°
Enters shadow 03:21:10 - 191° (SSW) 2,813 6.5 -8.6°
